Location: Lafig�re
(44.4503°N, 4.0357°E)
Time: 17:01:05
(UTC+00:00)

S-56A Canister/Altair - Pass Details

Date: 25 January 2021
Orbit: 631 x 2501 km, 38.9° (Epoch: 04 March)

Event Time Altitude Azimuth Distance (km) Brightness Sun altitude
Rises 04:33:05 0° 263° (W) 2,913 - -27.8°
Reaches altitude 10° 04:35:21 10° 256° (WSW) 2,022 - -27.4°
Maximum altitude 04:39:35 42° 185° (S) 987 - -26.6°
Exits shadow 04:39:55 42° 174° (S) 1,006 8.1 -26.6°
Drops below altitude 10° 04:44:43 10° 115° (ESE) 2,455 11.0 -25.7°
Sets 04:47:45 0° 109° (ESE) 3,629 12.2 -25.2°
